Montana Department of Transportation

Main Content

Accidents and Incidents Report

Hourly Weather Roundup

ASUS45 KTFX 040610
RWRMT 
MONTANA REGIONAL WEATHER ROUNDUP
NATIONAL WEATHER SERVICE GREAT FALLS MT
1200 AM MDT SAT JUL 04 2015

NOTE: "FAIR" INDICATES FEW OR NO CLOUDS BELOW 12000 FEET WITH NO
SIGNIFICANT WEATHER AND/OR OBSTRUCTIONS TO VISIBILITY.

MTZ001.007-043-040700-
WEST OF THE DIVIDE
  
CITY           SKY/WX    TMP DP  RH WIND       PRES   REMARKS
KALISPELL      CLEAR     65  48  54 CALM      29.82R                  
MISSOULA       CLEAR     72  44  36 S3        29.87R                  
BUTTE          CLEAR     63  39  41 SE8       30.04S                  
MULLAN PASS    CLEAR     71  35  26 W5        30.09S                  
DEER LODGE       N/A     64  43  45 W3        30.00S                  
EUREKA           N/A     75  45  33 E7        29.79S                  
HAMILTON         N/A     68  48  49 S1        29.91R                  
PLAINS           N/A     71  47  42 CALM      29.85S                  
RONAN            N/A     66  52  60 W2        29.91S                  
--------------------------------

MTZ008-052.055-040700-
SOUTHWEST MONTANA
  
CITY           SKY/WX    TMP DP  RH WIND       PRES   REMARKS
BOZEMAN        CLEAR     64  49  57 SE7       29.93S                  
DILLON         CLEAR     67  39  35 SW5       29.99R                  
W YELLOWSTONE  CLEAR     55  46  71 CALM      30.11S                  
THREE FORKS      N/A     65  60  83 CALM      29.92S                  
TWIN BRIDGES     N/A     69  40  34 E2        29.96F                  
--------------------------------

MTZ009-010-012-014-046-048-049-054-040700-
EAST SLOPES AND CENTRAL MONTANA
  
CITY           SKY/WX    TMP DP  RH WIND       PRES   REMARKS
CUT BANK       CLEAR     64  46  52 CALM      29.85F                  
GREAT FALLS    PTCLDY    73  45  36 E6        29.83S                  
MALMSTROM AFB  MOCLDY    73  48  41 S6        29.83S                  
HELENA         CLEAR     78  38  23 NW3       29.89R                  
CONRAD           N/A     64  52  65 N1        29.89S                  
--------------------------------

MTZ011-013-016-021-045-047-050-051-040700-
NORTH CENTRAL MONTANA
  
CITY           SKY/WX    TMP DP  RH WIND       PRES   REMARKS
HAVRE          CLEAR     67  49  52 S10       29.75F                  
LEWISTOWN      CLEAR     70  53  54 E7        29.90F                  
CHINOOK          N/A     70  52  52 SE5       29.75S                  
FORT BENTON      N/A     79  48  34 SW7       29.79R                  
--------------------------------

MTZ017.020-022.027-061-062-040700-
NORTHEAST MONTANA
  
CITY           SKY/WX    TMP DP  RH WIND       PRES   REMARKS
GLASGOW        CLEAR     69  57  65 E12       29.78F                  
JORDAN           N/A     69  50  50 E6        29.82F                  
SIDNEY         PTCLDY    70  61  73 S6        29.84F                  
WOLF POINT     PTCLDY    66  61  84 NW3       29.80F HAZE             
PLENTYWOOD       N/A     66  63  88 E6        29.82F                  
POPLAR           N/A    N/A N/A N/A SE5       29.80F                  
SCOBEY           N/A     67  58  72 S1        29.82F                  
--------------------------------

MTZ028.42-056.058-040700-
SOUTHCENTRAL AND SOUTHEAST MONTANA
  
CITY           SKY/WX    TMP DP  RH WIND       PRES   REMARKS
BAKER          CLEAR     67  59  75 SE10      29.90S                  
BILLINGS       CLEAR     77  52  41 E6        29.87F                  
LIVINGSTON     CLEAR     59  47  64 SW3       29.94R                  
MILES CITY     PTCLDY    75  56  51 SE7       29.83S                  
EKALAKA          N/A     71  57  61 SE10      29.91F                  
FORSYTH          N/A     73  54  49 CALM      29.82F                  
LAUREL           N/A     73  52  47 N2        29.87F                  
ROUNDUP          N/A     76  46  34 CALM      29.81S                  
--------------------------------

REGIONAL REPORTS...DAKOTAS
  
CITY           SKY/WX    TMP DP  RH WIND       PRES   REMARKS
WILLISTON      PTCLDY    74  64  71 S729.84F                  
MINOT          CLEAR     67  64  90 SE6       29.85F FOG              
DICKINSON      CLEAR     67  63  87 SE10      29.89F FOG              
BEACH          FAIR      64  64 100 SE9       29.89S                  
CROSBY         FAIR      66  66 100 S8        29.82F FOG              
BISMARCK       CLOUDY    67  64  90 SE3       29.91S FOG              
GRAND FORKS    CLOUDY    62  60  93 CALM      29.89S FOG              
FARGO          CLEAR     64  59  83 SE6       29.90S HAZE             
BUFFALO SD       N/A     65  58  78 SE12      29.86F                  
RAPID CITY     PTCLDY    63  60  90 S3        29.96F                  
--------------------------------

REGIONAL REPORTS...WYOMING/IDAHO/WASHINGTON
  
CITY           SKY/WX    TMP DP  RH WIND       PRES   REMARKS
GILLETTE       PTCLDY    71  58  63 S15       29.96F                  
SHERIDAN       CLEAR     63  57  81 SW7       29.91F                  
BUFFALO WY     PTCLDY    71  55  56 S3        30.00F                  
CODY           CLEAR     68  52  56 S6        29.99F                  
YELLOWSTONE LA   N/A     52  41  66 CALM      30.22F                  
IDAHO FALLS    MOCLDY    71  54  54 SW9       29.91F                  
SALMON         CLEAR     72  43  35 CALM      29.91R                  
BOISE          MOCLDY    83  43  24 CALM      29.82S                  
SPOKANE        PTCLDY    84  35  17 SW12      29.79S                  
--------------------------------

REGIONAL REPORTS...ALBERTA
  
CITY           SKY/WX    TMP DP  RH WIND       PRES   REMARKS
EDMONTON       CLEAR     59  41  51 CALM      29.85R                  
CALGARY        PTCLDY    64  52  63 N14G21    29.89R                  
LETHBRIDGE     MOCLDY    64  55  72 S10       29.78F                  
MEDICINE HAT   CLEAR     70  54  56 N3        29.73R                  
WATERTON GATE    N/A     61  46  59 W6          N/A                   
MILK RIVER       N/A     63  52  67 S2          N/A                   
--------------------------------

REGIONAL REPORTS...SASKATCHEWAN
  
CITY           SKY/WX    TMP DP  RH WIND       PRES   REMARKS
SWIFT CURRENT  MOCLDY    72  52  49 S14G21    29.73S                  
REGINA         MOCLDY    68  63  83 S9        29.78R SMOKE            
SASKATOON      CLOUDY    66  57  72 E6        29.74S                  
CYPRESS HILLS    N/A     68  41  37 NW3         N/A                   
--------------------------------